Weather History for Cape Cod CGAS, MA

Change the Weather History Date:

Tuesday, January 14, 2014

  Actual Average Record
Temperature  
Mean Temperature 48 °F -  
Max Temperature 53 °F 33 °F 68 °F (2005)
Min Temperature 44 °F 18 °F 0 °F (2004)
Degree Days  
Heating Degree Days 16    
Moisture  
Dew Point 47 °F    
Average Humidity 92    
Maximum Humidity 100    
Minimum Humidity 71    
Precipitation  
Precipitation 0.20 in - - ()
Sea Level Pressure  
Sea Level Pressure 29.79 in    
Wind  
Wind Speed 14 mph (SSW)    
Max Wind Speed 21 mph    
Max Gust Speed 28 mph    
Visibility 7 miles    
Events Rain    
Averages and records for this station are not official NWS values.
T = Trace of Precipitation, MM = Missing Value Source: NWS Daily Summary

Daily Weather History Graph

Daily Weather History Graph

Search for Another Location

Airport:

Trip Planner

Search our weather history database for the weather conditions in past years. The results will help you decide how hot, cold, wet, or windy it might be!

Date:

Astronomy

Jan. 14, 2014 Rise Set
Actual Time 7:07 AM EST 4:35 PM EST
Civil Twilight 6:36 AM EST 5:06 PM EST
Nautical Twilight 6:02 AM EST 5:40 PM EST
Astronomical Twilight 5:28 AM EST 6:13 PM EST
Moon 3:38 PM EST (1/14) 5:39 AM EST (1/14)
Length of Visible Light 10h 29m
Length of Day
9h 28m
Waxing Gibbous, 98% of the Moon is Illuminated
Jan 14
Waxing Gibbous
Jan 15
Full
Jan 24
Last Quarter
Jan 30
New
Feb 6
First Quarter

Hourly Weather History & Observations

Time (EST) Temp. Windchill Dew Point Humidity Pressure Visibility Wind Dir Wind Speed Gust Speed Precip Events Conditions
12:15 AM 48.2 °F - 44.6 °F 87% 29.95 in 10.0 mi SSW 16.1 mph 25.3 mph N/A   Overcast
12:35 AM 48.2 °F - 44.6 °F 87% 29.94 in 10.0 mi SSW 16.1 mph - N/A   Mostly Cloudy
12:55 AM 48.2 °F - 46.4 °F 93% 29.94 in 10.0 mi SSW 18.4 mph 21.9 mph N/A   Mostly Cloudy
1:15 AM 50.0 °F - 46.4 °F 87% 29.93 in 10.0 mi SSW 17.3 mph - N/A   Overcast
1:35 AM 50.0 °F - 46.4 °F 87% 29.94 in 10.0 mi SSW 18.4 mph 26.5 mph N/A   Overcast
1:55 AM 51.8 °F - 46.4 °F 82% 29.94 in 10.0 mi SSW 18.4 mph 24.2 mph N/A   Overcast
2:15 AM 51.8 °F - 46.4 °F 82% 29.93 in 10.0 mi SSW 20.7 mph 27.6 mph N/A   Overcast
2:35 AM 50.0 °F - 46.4 °F 87% 29.92 in 10.0 mi SSW 17.3 mph 24.2 mph N/A   Overcast
2:55 AM 50.0 °F - 46.4 °F 87% 29.91 in 10.0 mi SSW 15.0 mph 20.7 mph N/A   Overcast
3:15 AM 50.0 °F - 46.4 °F 87% 29.91 in 10.0 mi SSW 18.4 mph 23.0 mph N/A   Overcast
3:35 AM 50.0 °F - 46.4 °F 87% 29.90 in 10.0 mi SSW 12.7 mph 21.9 mph N/A   Overcast
3:55 AM 50.0 °F - 46.4 °F 87% 29.89 in 10.0 mi SSW 13.8 mph 20.7 mph N/A   Overcast
4:15 AM 50.0 °F - 46.4 °F 87% 29.89 in 10.0 mi SSW 13.8 mph - N/A   Overcast
4:35 AM 50.0 °F - 46.4 °F 87% 29.89 in 10.0 mi SSW 13.8 mph 21.9 mph N/A   Overcast
4:55 AM 50.0 °F - 46.4 °F 87% 29.89 in 10.0 mi SSW 16.1 mph - N/A   Mostly Cloudy
5:15 AM 50.0 °F - 46.4 °F 87% 29.88 in 10.0 mi SSW 15.0 mph 20.7 mph N/A   Mostly Cloudy
5:35 AM 50.0 °F - 46.4 °F 87% 29.88 in 10.0 mi SSW 15.0 mph 21.9 mph N/A   Overcast
5:55 AM 50.0 °F - 46.4 °F 87% 29.89 in 10.0 mi SSW 17.3 mph - N/A   Overcast
6:15 AM 50.0 °F - 44.6 °F 82% 29.90 in 10.0 mi SW 17.3 mph 26.5 mph N/A   Overcast
6:35 AM 50.0 °F - 44.6 °F 82% 29.89 in 10.0 mi SSW 18.4 mph 25.3 mph N/A   Overcast
6:55 AM 50.0 °F - 42.8 °F 76% 29.89 in 10.0 mi SSW 19.6 mph 26.5 mph N/A   Overcast
7:15 AM 50.0 °F - 42.8 °F 76% 29.89 in 10.0 mi SW 17.3 mph 27.6 mph N/A   Overcast
7:35 AM 50.0 °F - 41.0 °F 71% 29.89 in 10.0 mi SW 13.8 mph 20.7 mph N/A   Overcast
7:55 AM 50.0 °F - 42.8 °F 76% 29.89 in 10.0 mi SSW 17.3 mph - N/A   Mostly Cloudy
8:15 AM 50.0 °F - 41.0 °F 71% 29.90 in 10.0 mi SSW 12.7 mph - N/A   Mostly Cloudy
8:35 AM 50.0 °F - 44.6 °F 82% 29.90 in 10.0 mi SSW 12.7 mph - N/A   Mostly Cloudy
8:55 AM 50.0 °F - 46.4 °F 87% 29.90 in 9.0 mi SSW 12.7 mph - N/A   Mostly Cloudy
9:15 AM 50.0 °F - 46.4 °F 87% 29.90 in 10.0 mi SSW 13.8 mph - N/A   Partly Cloudy
9:35 AM 51.8 °F - 46.4 °F 82% 29.89 in 10.0 mi SSW 11.5 mph - N/A   Mostly Cloudy
9:55 AM 53.6 °F - 48.2 °F 82% 29.89 in 10.0 mi SSW 12.7 mph - N/A   Overcast
10:15 AM 51.8 °F - 48.2 °F 88% 29.88 in 10.0 mi SSW 12.7 mph - N/A   Overcast
10:35 AM 51.8 °F - 48.2 °F 88% 29.87 in 7.0 mi SSW 11.5 mph - N/A   Overcast
10:55 AM 51.8 °F - 48.2 °F 88% 29.85 in 10.0 mi SSW 9.2 mph - N/A   Overcast
11:15 AM 51.8 °F - 50.0 °F 94% 29.83 in 4.0 mi SSW 11.5 mph - N/A Rain Light Rain
11:35 AM 51.8 °F - 50.0 °F 94% 29.81 in 5.0 mi SSW 9.2 mph - N/A   Overcast
11:55 AM 51.8 °F - 50.0 °F 94% 29.81 in 5.0 mi SSW 9.2 mph - 0.01 in Rain Light Rain
12:15 PM 50.0 °F - 50.0 °F 100% 29.81 in 2.5 mi SSW 11.5 mph - N/A   Overcast
12:35 PM 50.0 °F - 50.0 °F 100% 29.78 in 5.0 mi South 11.5 mph - 0.03 in Rain Light Rain
12:55 PM 50.0 °F - 50.0 °F 100% 29.77 in 4.0 mi South 12.7 mph - 0.03 in Rain Light Rain
1:15 PM 50.0 °F - 50.0 °F 100% 29.76 in 3.0 mi South 17.3 mph 23.0 mph N/A   Overcast
1:35 PM 50.0 °F - 50.0 °F 100% 29.75 in 4.0 mi South 18.4 mph 24.2 mph N/A Rain Light Rain
1:55 PM 50.0 °F - 50.0 °F 100% 29.74 in 4.0 mi South 17.3 mph 24.2 mph N/A Rain Light Rain
2:15 PM 50.0 °F - 50.0 °F 100% 29.74 in 1.8 mi SSW 10.4 mph - N/A   Overcast
2:35 PM 50.0 °F - 50.0 °F 100% 29.72 in 5.0 mi South 13.8 mph 20.7 mph N/A Rain Light Rain
2:55 PM 50.0 °F - 50.0 °F 100% 29.71 in 2.5 mi SSW 11.5 mph - N/A Rain Light Rain
3:15 PM 50.0 °F - 50.0 °F 100% 29.71 in 1.0 mi South 10.4 mph - N/A Rain Rain
3:35 PM 50.0 °F - 50.0 °F 100% 29.71 in 1.5 mi SSW 8.1 mph - 0.02 in Rain Light Rain
3:55 PM 50.0 °F - 50.0 °F 100% 29.71 in 2.5 mi SW 9.2 mph - 0.07 in Rain Rain
4:15 PM 50.0 °F - 50.0 °F 100% 29.69 in 3.0 mi SSW 9.2 mph - 0.02 in Rain Light Rain
4:35 PM 50.0 °F - 50.0 °F 100% 29.67 in 5.0 mi SSW 6.9 mph - 0.04 in Rain Light Rain
4:55 PM 50.0 °F - 50.0 °F 100% 29.66 in 4.0 mi South 5.8 mph - 0.07 in Rain Light Rain
5:15 PM 50.0 °F - 50.0 °F 100% 29.65 in 2.5 mi South 6.9 mph - 0.03 in Rain Rain
5:35 PM 50.0 °F - 50.0 °F 100% 29.63 in 3.0 mi SSE 5.8 mph - 0.08 in Rain Light Rain
5:55 PM 50.0 °F - 50.0 °F 100% 29.63 in 4.0 mi South 11.5 mph - 0.12 in Rain Light Rain
6:15 PM 50.0 °F - 50.0 °F 100% 29.61 in 3.0 mi South 11.5 mph - N/A   Overcast
6:35 PM 48.2 °F - 48.2 °F 100% 29.60 in 2.5 mi South 15.0 mph - N/A   Overcast
6:55 PM 48.2 °F - 48.2 °F 100% 29.59 in 4.0 mi South 10.4 mph - N/A   Overcast
7:15 PM 50.0 °F - 50.0 °F 100% 29.60 in 5.0 mi SW 11.5 mph - N/A Rain Light Rain
7:35 PM 50.0 °F - 50.0 °F 100% 29.62 in 1.5 mi WSW 12.7 mph 19.6 mph 0.02 in   Overcast
7:55 PM 48.2 °F - 48.2 °F 100% 29.61 in 5.0 mi West 4.6 mph - 0.03 in Rain Light Rain
8:15 PM 48.2 °F - 48.2 °F 100% 29.63 in 3.0 mi West 9.2 mph - 0.02 in Rain Light Rain
8:35 PM 48.2 °F - 48.2 °F 100% 29.65 in 3.0 mi WNW 12.7 mph 18.4 mph 0.05 in Rain Light Rain
8:55 PM 46.4 °F 42.4 °F 46.4 °F 100% 29.63 in 5.0 mi NNW 8.1 mph 17.3 mph 0.06 in Rain Light Rain
9:15 PM 46.4 °F 42.9 °F 46.4 °F 100% 29.63 in 7.0 mi NNW 6.9 mph - N/A   Overcast
9:35 PM 46.4 °F 41.5 °F 46.4 °F 100% 29.63 in 10.0 mi NW 10.4 mph - N/A   Overcast
9:55 PM 46.4 °F 44.3 °F 44.6 °F 93% 29.62 in 10.0 mi North 4.6 mph - N/A   Overcast
10:15 PM 46.4 °F 41.5 °F 44.6 °F 93% 29.68 in 10.0 mi West 10.4 mph - N/A   Overcast
10:35 PM 44.6 °F 38.1 °F 44.6 °F 100% 29.69 in 10.0 mi West 13.8 mph - N/A   Overcast
10:55 PM 44.6 °F 38.4 °F 44.6 °F 100% 29.71 in 10.0 mi West 12.7 mph 20.7 mph N/A   Overcast
11:15 PM 44.6 °F 38.1 °F 42.8 °F 93% 29.74 in 10.0 mi West 13.8 mph - N/A   Overcast
11:35 PM 44.6 °F 38.4 °F 42.8 °F 93% 29.75 in 10.0 mi WNW 12.7 mph - N/A   Overcast
11:55 PM 44.6 °F 38.1 °F 41.0 °F 87% 29.76 in 10.0 mi WNW 13.8 mph 19.6 mph N/A   Overcast